Location: St. Louis
(38.6270°N, 90.1994°W)
Time: 17:00:54
(UTC-05:00)

ISS - Pass Details

Date: 22 February 2014
Orbit: 401 x 404 km, 51.6° (Epoch: 25 July)

Event Time Altitude Azimuth Distance (km) Brightness Sun altitude
Rises 18:36:59 0° 316° (NW) 2,326 1.1 -10.6°
Reaches altitude 10° 18:39:17 10° 330° (NNW) 1,467 -0.1 -11.0°
Maximum altitude 18:42:06 26° 29° (NNE) 846 -2.0 -11.6°
Enters shadow 18:43:34 19° 69° (ENE) 1,048 -1.8 -11.9°
